AirNav   ProFlight Series 2 Aviation Headset
 
 269 users online  

55NE Bergan Mercy Hospital Heliport
Omaha, Nebraska, USA

GOING TO OMAHA?


FAA INFORMATION EFFECTIVE 18 JUNE 2020

Location

FAA Identifier: 55NE
Lat/Long: 41-14-26.5400N 096-01-50.7800W
41-14.442333N 096-01.846333W
41.2407056,-96.0307722
(estimated)
Elevation: 1140 ft. / 347 m (estimated)
Variation: 06E (1985)
Time zone: UTC -5 (UTC -6 during Standard Time)
Zip code: 68124

Heliport Operations

Heliport use: Private use, MEDICAL.
Activation date: 06/1983
Control tower: no
ARTCC: MINNEAPOLIS CENTER
FSS: COLUMBUS FLIGHT SERVICE STATION
Attendance: CONTINUOUS
Wind indicator: lighted
Segmented circle: yes
Lights: FOR PERIMETER LGTS CALL 402-398-6060.

Heliport Communications

WX AWOS-3 at MLE (5 nm SW): 118.25 (402-895-6778)
WX ASOS at OMA (7 nm NE): PHONE 402-271-7515
WX AWOS-3 at BTA (11 nm N): 120.225 (402-426-0448)
WX AWOS-3 at CBF (12 nm E): 126.575 (712-323-1542)
WX AWOS-3 at PMV (18 nm S): 118.975 (402-298-7524)

Nearby radio navigation aids

VOR radial/distance  VOR name  Freq  Var
OVRr280/14.0OMAHA VORTAC116.3008E
SCBr123/34.7SCRIBNER VOR/DME111.0006E
LNKr050/37.4LINCOLN VORTAC116.1009E

 
NDB name  Hdg/Dist  Freq  Var  ID
PLATTSMOUTH338/18.632905EPMV .--. -- ...-
WAHOO084/25.640006EAHQ .- .... --.-
NEBRASKA CITY344/38.934705EAFK .- ..-. -.-

Heliport Services

Runway Information

Helipad H1

Dimensions: 30 x 30 ft. / 9 x 9 m
HELIPAD LCTD WITHIN A 80 X 80' LNDG/TKOF AREA.
Surface: concrete
Runway edge lights: PERI
Latitude: 41-14.442333N
Longitude: 096-01.846333W
Elevation: 1140.0 ft.
Traffic pattern: leftleft

Heliport Ownership and Management from official FAA records

Ownership: Privately-owned
Owner: BERGAN MERCY INC.
7500 MERCY ROAD
OMAHA, NE 68124
Phone 402-398-6060
Manager: BOB BURRITT
7500 MERCY ROAD
OMAHA, NE 68124
Phone 402-398-6078

Additional Remarks

A52-H1 3' FENCE SURROUNDS PAD; 50' PLINES 125' EAST.
APPROACH FROM 300 DEG (WNW).
FOR CD CTC OMAHA APCH AT 402-682-4395.

Instrument Procedures

There are no published instrument procedures at 55NE.

Some nearby airports with instrument procedures:

KMLE - Millard Airport (5 nm SW)
KOMA - Eppley Airfield (7 nm NE)
KOFF - Offutt Air Force Base (9 nm SE)
KBTA - Blair Municipal Airport (11 nm N)
KCBF - Council Bluffs Municipal Airport (12 nm E)
KPMV - Plattsmouth Municipal Airport (18 nm S)
 
Loc | Ops | Rwys | IFR | FBO | Links
Com | Nav | Svcs | Stats | Notes

Silverhawk Aviation, Inc.
AirBoss

 
Area around 55NE (Bergan Mercy Hospital Heliport)
 
Road maps at: MapQuest Bing Google
 
Aerial photo
No photo
 
Sectional chart

 
Airport distance calculator
Flying to Bergan Mercy Hospital Heliport? Find the distance to fly.

From to 55NE

Sunrise and sunset
Times for 15-Jul-2020
 Local
(UTC-5)
 Zulu
(UTC)
Morning civil twilight05:3310:33
Sunrise06:0611:06
Sunset20:5401:54
Evening civil twilight21:2702:27

Current date and time
Zulu (UTC)  15-Jul-2020 09:41:42
Local (UTC-5)  15-Jul-2020 04:41:42
 
METAR
KMLE 
5nm SW 
150915Z AUTO 03003KT 10SM OVC055 22/13 A2993 RMK AO2 LTG DSNT E THRU S T02170133
KOMA 
7nm NE 
150852Z 36008KT 10SM OVC060 21/14 A2994 RMK AO2 SLP130 T02060139 56015
KOFF 
9nm SE 
150856Z AUTO 02009G16KT 10SM OVC049 21/13 A2993 RMK AO2 SLP130 T02100134 55011 $
KBTA 
11nm N 
150915Z AUTO 03008KT 10SM OVC080 19/15 A2995 RMK AO2 LTG DSNT SE T01910147
KCBF 
12nm E 
150915Z AUTO 04011KT 10SM OVC055 20/13 A2993 RMK AO2
KPMV 
18nm S 
150915Z AUTO 03011G15KT 10SM BKN039 OVC046 20/14 A2993 RMK AO2 LTG DSNT E THRU SW T02030137
TAF
KOMA 
7nm NE 
150520Z 1506/1606 04007KT P6SM SCT060 BKN100 TEMPO 1509/1513 5SM -TSRA BKN025CB FM151300 01008KT P6SM OVC015 FM152100 02007KT P6SM BKN050 FM152200 01005KT P6SM SKC
KOFF 
9nm SE 
150200Z 1502/1608 36010G15KT 9999 SCT060 BKN150 QNH2990INS TEMPO 1502/1504 8000 -TSRA OVC060CB BECMG 1507/1508 04009KT 9000 -SHRA BKN040 OVC080 QNH2990INS BECMG 1511/1512 04009KT 6000 -SHRA BKN020 OVC060 QNH2990INS TEMPO 1512/1516 VRB15G25KT 4800 TSRA OVC015CB BECMG 1516/1517 01009KT 9999 NSW SCT030 BKN080 QNH2992INS BECMG 1600/1601 VRB06KT 9999 SKC QNH2994INS TX27/1522Z TN18/1510Z
NOTAMs
Click for the latest NOTAMs
NOTAMs are issued by the DoD/FAA and will open in a separate window not controlled by AirNav.

 

 
 

Would you like to see your business listed on this page?

 If your business provides an interesting product or service to pilots, flight crews, aircraft, or users of the Bergan Mercy Hospital Heliport, you should consider listing it here.  To start the listing process, click on the button below
 
Add a business
 

Other Pages about Bergan Mercy Hospital Heliport

Update a link
 
Copyright © AirNav, LLC. All rights reserved. Privacy Policy  Contact